Dewpoint
-4 -4 -4 -5 -5 -6 -5 -4 -4 -4 -5 -5 -5 -5 -5 -6 -6 -6 -4 -3 -3 -8 -5 -5 -5 -5 -5 -4 -2 -2 3 3 2 3 3 3 4 4 2 1 -0 1 5 5
-4 -3 -5 -6 -5 -5 -4 -4 -6 -5 -6 -5 -4 -3 -5 -6 -5 -4 -3 -2 -1 -4 -8 -6 -5 -5 -5 -4 -3 -1 1 4 4 4 4 4 3 2 0 0 3 5 5 5
-3 -4 -6 -6 -6 -5 -6 -6 -5 -4 -4 -4 -3 -3 -8 -5 -3 -3 -3 -2 -1 -1 -2 -7 -7 -5 -5 -4 -4 -1 -0 -0 2 3 2 2 0 -1 -0 1 4 5 5 5
-4 -7 -7 -6 -5 -6 -7 -6 -4 -3 -2 -0 -3 1 -4 -9 -5 -4 -3 -2 -2 -1 -1 -0 -1 -5 -6 -5 -3 -1 -1 -0 -0 -1 -1 -0 -0 -1 -1 2 3 5 5 5
-6 -5 -5 -9 -5 -6 -6 -6 -4 -2 -1 -1 -2 -0 -2 -10 -10 -7 -4 -3 -1 -0 0 -1 0 1 1 -0 -2 -2 -2 -1 -0 -0 -0 0 2 2 3 3 4 4 4 4
-6 -5 -8 -8 -6 -5 -5 -3 -1 -1 -1 2 -1 -2 -1 -9 -11 -6 -5 -2 -7 -9 -9 -10 -6 -1 -1 -1 -1 -1 -0 -0 1 0 0 1 0 2 3 3 4 3 3 3
-4 -4 -6 -4 -7 -5 -4 -1 2 2 2 3 -0 -3 -2 -7 -7 -5 -3 -9 -7 -8 -10 -10 -10 -10 -9 -9 -8 -5 -4 -3 -2 -1 -1 -0 -0 -0 -1 -2 -0 0 0 2
-1 -0 -5 -6 -7 -5 -4 -1 1 0 2 2 -1 2 -1 -9 -5 -9 -9 -8 -6 -9 -10 -9 -9 -9 -8 -8 -8 -8 -7 -7 -6 -5 -5 -5 -4 -4 -3 -2 -3 -3 -2 -2
-1 -1 -8 -7 -6 -5 -3 -0 -2 -1 -0 1 1 -0 -3 -8 -8 -10 -9 -5 -6 -6 -6 -5 -5 -5 -5 -5 -5 -5 -5 -5 -6 -6 -7 -6 -6 -6 -5 -6 -6 -6 -5 -4
-6 -1 -5 -6 -6 -4 -4 -3 -2 0 3 5 3 1 1 -6 -7 -9 -7 -5 -4 -5 -6 -5 -6 -6 -6 -6 -6 -6 -7 -7 -7 -8 -7 -7 -6 -5 -5 -6 -7 -7 -7 -7
-7 -3 -2 -3 -2 -1 -1 -2 -2 -1 1 3 1 2 -2 -6 -8 -8 -5 -4 -5 -5 -6 -4 -4 -5 -6 -8 -9 -9 -9 -9 -9 -9 -9 -8 -8 -8 -7 -5 -4 -5 -6 -7
-6 -4 -1 -0 -3 -7 -4 -2 -2 1 -0 0 -1 1 -4 -5 -9 -6 -5 -4 -5 -5 -6 -4 -6 -8 -10 -10 -11 -12 -12 -12 -11 -10 -9 -8 -7 -7 -8 -7 -6 -5 -4 -4
-4 -1 -0 -1 -4 -4 -5 -5 -3 -2 -1 1 0 0 -5 -6 -5 -5 -4 -3 -4 -5 -4 -7 -9 -10 -10 -9 -10 -11 -12 -13 -12 -12 -11 -10 -9 -7 -6 -6 -7 -7 -6 -5
-2 -0 0 0 -4 -0 1 0 -2 -1 -0 1 1 -0 -3 -5 -4 -4 -3 -3 -4 -3 -6 -7 -7 -7 -9 -9 -9 -10 -10 -9 -9 -11 -12 -12 -11 -10 -7 -6 -6 -5 -5 -6
-2 -1 0 0 0 0 1 1 0 1 0 1 -2 -2 -4 -4 -4 -3 -3 -3 -2 -3 -4 -5 -6 -8 -8 -10 -11 -11 -10 -9 -8 -8 -8 -10 -9 -9 -8 -7 -6 -5 -5 -4
-4 -2 -4 -3 -1 -1 0 -1 -1 -1 -1 -1 -1 -0 -3 -3 -2 -2 -2 -2 -3 -4 -6 -7 -8 -9 -9 -8 -6 -6 -6 -7 -8 -8 -7 -6 -5 -5 -6 -7 -7 -7 -6 -4
-2 -1 -1 1 -0 -1 -2 -2 -2 -1 -1 -1 1 -1 -2 -2 -2 -3 -2 -2 -3 -5 -5 -7 -9 -10 -7 -6 -5 -6 -7 -7 -6 -4 -3 -4 -4 -5 -5 -5 -5 -5 -6 -6
-1 -2 0 1 1 -0 -5 -5 -4 -3 -2 -2 -0 -1 -2 -3 -3 -2 -3 -2 -4 -6 -6 -8 -10 -8 -6 -6 -6 -8 -6 -5 -5 -6 -4 -7 -9 -9 -9 -6 -4 -4 -4 -4
-0 -0 0 1 -1 -2 -3 -5 -3 -1 -0 -2 -1 -1 -3 -4 -2 -2 -3 -4 -4 -5 -7 -7 -6 -4 -4 -5 -6 -9 -10 -7 -7 -6 -12 -16 -16 -14 -14 -6 -3 -3 -3 -4
-1 -1 0 1 2 1 -4 -5 -7 -6 -0 -4 -4 -3 -4 -3 -1 -4 -6 -5 -5 -9 -8 -5 -5 -4 -5 -6 -8 -9 -14 -21 -21 -17 -13 -19 -20 -17 -13 -7 -2 -3 -3 -3
-4 0 2 1 2 1 -4 -6 -5 1 -1 -5 -6 -6 -5 -2 -4 -5 -6 -7 -7 -7 -6 -4 -4 -5 -8 -8 -11 -15 -17 -21 -20 -20 -20 -20 -18 -16 -14 -11 -3 -2 -2 -2
-3 -2 -0 0 2 0 -7 -7 -4 -4 -7 -9 -10 -9 -5 -5 -7 -8 -8 -7 -4 -6 -6 -8 -8 -8 -9 -12 -15 -15 -16 -16 -17 -18 -20 -20 -19 -18 -14 -11 -4 -2 -2 -2
-4 -4 -4 -3 -4 -7 -7 -7 -7 -8 -11 -10 -8 -7 -7 -8 -7 -8 -6 -4 -8 -8 -11 -12 -13 -14 -14 -17 -19 -18 -18 -17 -16 -17 -17 -18 -18 -17 -15 -11 -8 -3 -3 -3
-7 -8 -5 -5 -8 -8 -8 -8 -9 -11 -12 -10 -8 -8 -8 -7 -7 -4 -6 -9 -13 -15 -16 -16 -17 -18 -20 -21 -22 -21 -20 -19 -18 -17 -16 -15 -14 -14 -14 -11 -6 -3 -3 -3
-7 -6 -6 -6 -8 -9 -9 -10 -10 -10 -9 -8 -8 -8 -8 -7 -4 -7 -12 -13 -12 -13 -13 -14 -14 -12 -13 -15 -17 -19 -20 -18 -17 -17 -15 -14 -13 -11 -11 -11 -6 -5 -4 -4
-8 -7 -6 -6 -9 -9 -9 -9 -8 -8 -7 -8 -7 -5 -5 -6 -7 -11 -13 -12 -12 -11 -11 -12 -12 -12 -13 -13 -13 -15 -19 -18 -17 -17 -16 -12 -12 -12 -10 -8 -8 -5 -4 -4
Wind_Speed
5 6 2 2 1 2 1 3 4 4 5 7 5 13 17 19 10 5 1 9 13 14 9 6 7 9 11 12 14 16 11 7 5 9 10 15 16 17 16 17 16 16 16 17
5 3 3 1 1 2 4 3 4 5 2 3 6 16 8 3 2 4 5 9 11 13 11 5 6 8 10 11 11 13 10 7 7 11 15 17 16 16 15 15 15 15 16 17
5 3 1 1 0 1 3 3 2 3 7 1 7 5 5 3 4 4 5 7 8 11 14 11 8 8 9 10 8 9 10 9 10 12 12 13 15 17 17 16 16 16 16 18
3 1 1 2 2 1 3 2 3 5 5 3 5 4 4 3 2 3 7 9 10 12 12 12 12 10 9 9 9 9 9 8 9 12 13 15 16 18 17 18 18 18 18 18
0 1 2 2 1 1 3 2 3 1 2 3 1 2 6 3 2 2 5 8 11 12 12 12 11 10 10 10 9 9 10 10 11 12 13 15 17 18 19 18 19 18 18 18
2 0 1 1 2 0 5 3 4 3 2 2 1 3 5 3 2 0 3 8 10 13 12 12 10 9 10 10 10 10 10 10 11 12 12 13 15 15 17 17 18 17 18 18
6 1 1 2 3 1 7 5 4 5 4 4 3 1 8 3 2 2 3 7 10 12 12 12 12 13 12 12 11 10 11 11 10 12 13 14 15 16 17 18 18 19 18 18
3 6 2 2 2 1 3 2 4 4 2 5 4 6 4 3 3 4 5 6 8 10 10 12 13 13 14 13 14 13 11 12 12 12 12 13 15 17 19 20 20 21 21 21
2 5 1 2 1 2 1 1 3 2 1 2 4 6 6 2 3 5 8 15 13 7 8 10 10 11 11 11 12 12 12 11 11 13 13 13 14 16 18 17 19 21 23 24
4 4 0 1 1 3 1 4 2 3 1 4 5 5 5 6 6 5 5 9 19 12 4 12 14 14 14 14 12 12 13 15 16 16 15 15 16 16 17 18 20 20 21 22
3 3 4 1 3 5 1 0 3 2 3 4 3 6 6 8 8 8 5 14 19 15 4 5 12 13 14 14 16 18 18 18 19 20 21 21 20 19 19 19 19 20 22 22
1 3 4 8 0 1 1 4 5 3 4 3 3 6 1 6 8 10 8 16 20 8 8 3 11 14 17 18 18 20 21 22 23 24 24 23 22 21 22 23 22 22 23 23
5 0 3 8 4 2 3 4 4 3 2 7 3 6 2 1 4 7 14 21 17 3 5 9 13 17 18 19 22 25 27 27 27 28 28 28 27 27 25 25 25 25 25 25
7 4 7 7 5 3 4 5 4 4 2 8 13 26 12 11 14 20 31 28 5 5 8 13 17 20 22 23 26 29 31 30 30 29 29 31 31 32 31 29 27 27 26 27
3 5 5 8 8 7 12 12 13 15 18 11 26 18 15 9 8 15 13 3 4 6 11 16 20 24 26 29 31 32 33 34 35 36 36 34 33 32 32 32 30 28 27 26
0 4 2 4 9 14 19 15 19 22 23 22 22 27 17 21 8 4 2 1 5 10 16 20 23 27 29 29 30 32 32 33 34 35 35 35 33 32 31 32 34 33 31 29
6 4 2 6 1 6 9 11 16 4 5 7 9 7 3 2 5 5 4 4 7 17 20 24 27 28 29 30 33 33 32 31 32 32 31 31 31 32 33 33 34 35 34 32
5 6 3 8 5 6 5 4 6 8 5 5 2 4 3 7 11 10 10 5 17 21 22 27 31 32 31 33 31 30 29 27 27 28 28 29 31 33 35 36 35 34 34 34
17 5 6 4 4 9 10 5 1 4 1 2 3 4 9 14 8 7 6 13 18 20 26 31 31 32 33 29 28 28 29 26 27 27 27 29 31 33 35 35 34 34 33 33
3 7 7 3 4 5 4 5 6 1 4 4 6 9 16 14 7 5 11 16 19 27 30 31 30 28 29 26 28 30 30 29 29 28 27 28 31 33 34 34 30 31 32 33
3 2 13 12 8 7 3 5 5 3 4 12 15 19 22 7 17 22 23 26 29 30 30 27 23 25 23 25 28 30 30 29 28 27 28 29 30 32 32 35 32 31 30 30
5 4 4 3 5 8 10 5 1 8 22 24 26 28 22 16 22 29 31 31 29 28 23 21 21 23 23 26 27 29 31 30 30 30 31 32 32 32 31 32 31 31 34 34
4 5 1 5 6 10 8 3 15 19 24 25 20 23 23 27 32 33 32 28 20 19 21 21 23 25 26 27 27 30 31 31 31 31 33 33 34 34 33 32 32 33 31 30
4 6 3 5 2 14 33 42 41 38 35 37 36 28 29 33 32 27 21 19 21 22 22 22 23 25 27 26 27 28 29 28 30 32 34 34 35 36 35 35 31 32 32 33
7 4 5 15 21 28 29 28 35 37 36 36 35 35 39 36 24 19 18 19 22 24 25 25 27 28 29 29 31 30 28 28 29 31 33 35 36 36 37 39 34 32 34 31
8 5 4 13 27 24 33 38 34 35 38 36 37 31 21 15 15 22 21 23 25 30 31 32 33 31 32 34 35 33 28 26 29 32 34 35 36 37 38 38 38 31 33 33
Wind_Direction
33 66 104 229 190 120 178 239 261 265 314 345 290 291 294 298 292 283 335 350 355 357 351 339 336 338 345 350 353 359 357 353 270 262 272 277 284 286 284 284 288 290 291 292
29 104 214 226 77 227 230 271 298 275 269 336 329 301 298 329 76 105 30 353 352 360 3 342 323 332 336 339 343 354 350 320 293 284 282 281 285 285 286 288 291 291 291 293
137 183 154 79 57 279 241 218 221 249 326 265 300 304 352 14 89 65 15 340 351 358 8 8 347 324 323 333 325 339 341 325 307 298 293 292 290 290 292 295 296 293 293 293
102 133 143 196 180 178 341 194 30 329 15 288 20 277 312 342 37 17 357 0 359 2 4 5 9 5 340 320 329 321 326 327 312 308 302 302 300 298 299 297 293 290 294 295
204 116 4 77 31 295 247 18 280 220 185 15 351 71 271 341 286 330 339 355 355 350 346 350 356 357 359 353 343 327 321 322 317 312 307 302 300 301 302 298 294 293 292 292
93 157 117 215 288 249 315 20 59 58 96 15 262 141 278 206 202 129 358 3 358 359 357 358 353 345 346 343 339 335 330 329 323 318 315 310 308 306 302 300 298 297 292 289
346 19 352 27 13 48 27 34 338 351 5 226 341 354 247 269 184 117 16 15 18 16 24 23 23 23 16 8 351 338 338 343 336 324 319 315 308 304 301 302 300 299 296 289
67 331 34 357 89 172 41 116 147 250 267 281 311 238 252 224 157 104 77 46 37 38 45 47 49 48 45 38 33 30 15 1 346 333 326 321 317 308 301 298 296 293 291 289
62 281 32 47 103 101 135 80 160 115 264 17 254 287 304 167 139 103 84 46 10 17 52 61 58 51 42 35 28 19 15 13 4 354 344 336 324 311 307 306 298 293 289 287
184 316 43 24 88 41 112 153 62 5 299 262 281 277 236 218 190 160 88 34 4 345 63 65 60 53 41 31 24 13 5 356 349 344 338 332 325 319 312 303 298 296 294 290
127 114 291 7 198 184 103 167 70 135 176 209 275 260 212 205 195 167 124 354 346 328 193 89 38 35 30 24 16 10 3 355 346 341 339 334 330 322 316 308 303 300 294 289
92 149 276 239 165 360 196 203 162 139 256 245 207 265 302 245 187 148 354 6 356 322 183 67 24 15 10 7 3 360 354 348 343 339 335 334 332 323 317 313 309 304 301 295
188 259 343 329 6 16 222 206 180 139 77 213 189 259 211 184 260 308 346 340 328 48 102 26 16 13 7 1 355 351 348 343 339 332 329 328 328 325 322 316 309 306 301 298
176 185 193 224 230 165 218 205 213 173 202 271 234 267 262 292 299 327 332 317 275 113 23 9 3 359 355 350 346 342 338 336 332 326 322 319 317 317 316 314 311 309 305 300
160 208 236 254 275 272 266 254 250 244 246 241 270 254 279 279 292 307 308 312 121 29 3 354 349 347 345 341 336 333 330 328 325 324 323 321 317 312 309 308 307 305 303 302
132 263 90 274 246 251 267 262 250 246 258 260 268 273 278 289 274 280 346 83 10 353 348 344 342 336 332 329 327 325 324 322 320 319 319 319 319 316 313 310 308 305 302 299
177 186 355 273 360 316 296 244 233 232 208 218 245 256 272 293 300 300 285 256 335 341 336 331 326 324 323 322 322 321 320 318 320 319 319 320 319 319 318 314 311 309 307 303
192 146 179 282 354 273 248 284 225 215 246 201 195 207 234 281 287 298 286 255 326 319 315 317 319 315 315 316 317 318 316 317 319 319 318 318 316 316 318 319 313 311 312 309
220 175 246 243 203 290 297 301 212 175 158 345 267 269 306 309 295 280 235 288 294 308 309 307 308 306 310 314 317 317 319 319 317 320 321 317 317 318 320 319 315 312 311 310
109 201 209 171 227 252 242 302 325 152 237 44 359 314 306 299 284 277 297 298 297 305 304 303 304 301 308 308 313 314 321 322 322 322 315 316 317 318 320 323 317 315 313 311
50 180 221 238 247 271 263 310 348 237 303 339 326 307 291 247 272 298 304 300 300 302 302 303 299 302 306 311 312 313 317 318 322 321 317 316 317 319 320 322 318 318 317 313
188 191 214 224 260 266 28 16 34 336 326 316 308 306 287 283 300 305 303 299 301 305 307 309 308 306 306 311 314 314 315 319 319 318 316 317 319 321 320 320 316 314 316 318
280 205 219 196 239 311 318 346 308 308 303 302 303 299 297 300 297 297 299 303 306 305 306 306 310 308 306 310 315 314 317 320 317 314 314 314 316 318 320 322 317 314 314 311
298 320 248 312 287 305 309 308 309 318 310 309 305 296 293 298 294 285 289 296 303 307 309 314 312 311 311 314 313 314 317 321 318 315 316 316 317 318 318 318 314 306 309 314
234 306 251 273 289 296 291 298 302 299 299 300 295 291 298 295 280 276 287 301 312 312 313 314 311 311 312 315 312 313 315 317 316 315 316 317 318 318 317 317 312 301 303 309
225 238 248 281 295 284 290 293 294 297 294 289 292 299 292 285 283 282 293 302 307 309 310 315 316 313 314 315 314 314 314 313 312 311 310 313 314 315 317 317 313 300 298 308
Height
1533 1540 1546 1544 1542 1542 1544 1547 1545 1538 1532 1529 1525 1520 1510 1506 1507 1507 1509 1509 1507 1505 1503 1502 1502 1500 1498 1498 1497 1495 1494 1493 1494 1495 1495 1496 1495 1495 1494 1493 1493 1492 1491 1491
1540 1544 1541 1540 1540 1543 1545 1544 1541 1536 1532 1535 1527 1518 1510 1504 1505 1507 1508 1508 1508 1506 1503 1502 1500 1499 1498 1497 1497 1496 1495 1495 1495 1495 1495 1493 1493 1493 1492 1491 1491 1490 1489 1489
1542 1541 1538 1538 1541 1542 1542 1540 1540 1541 1537 1533 1533 1518 1512 1508 1507 1508 1509 1509 1508 1505 1502 1500 1499 1498 1497 1497 1496 1495 1495 1494 1495 1494 1493 1492 1491 1490 1490 1490 1489 1488 1488 1487
1539 1538 1538 1539 1540 1542 1539 1538 1538 1543 1546 1544 1535 1537 1518 1512 1509 1509 1509 1508 1506 1505 1504 1502 1499 1497 1496 1496 1495 1494 1493 1493 1493 1492 1491 1491 1490 1488 1488 1487 1486 1486 1485 1484
1540 1540 1540 1539 1541 1540 1539 1538 1541 1542 1546 1547 1540 1553 1522 1515 1511 1510 1509 1508 1508 1506 1504 1502 1500 1499 1497 1495 1494 1493 1492 1491 1490 1490 1489 1488 1487 1486 1484 1483 1483 1482 1482 1481
1540 1539 1541 1541 1540 1539 1538 1538 1543 1549 1551 1554 1535 1544 1524 1518 1510 1510 1509 1509 1508 1505 1503 1502 1500 1499 1498 1496 1494 1492 1491 1490 1489 1487 1486 1485 1484 1483 1481 1480 1479 1478 1478 1477
1544 1541 1540 1540 1539 1540 1541 1546 1558 1553 1562 1547 1540 1540 1522 1511 1509 1509 1510 1509 1507 1504 1502 1500 1499 1498 1496 1495 1493 1492 1490 1489 1488 1486 1484 1483 1481 1480 1478 1477 1475 1474 1473 1473
1561 1550 1540 1541 1542 1545 1547 1548 1567 1565 1570 1560 1544 1535 1517 1510 1510 1509 1509 1508 1507 1505 1503 1501 1499 1497 1496 1494 1492 1490 1489 1488 1486 1484 1482 1480 1479 1476 1475 1473 1471 1470 1469 1468
1552 1546 1541 1541 1542 1545 1548 1555 1551 1558 1566 1574 1540 1526 1512 1509 1510 1510 1509 1509 1507 1506 1504 1502 1500 1498 1496 1494 1492 1491 1490 1487 1485 1483 1480 1478 1476 1474 1471 1469 1467 1465 1464 1462
1550 1555 1542 1543 1544 1545 1544 1549 1559 1568 1566 1551 1537 1532 1518 1511 1510 1510 1509 1509 1507 1506 1505 1503 1501 1498 1497 1495 1492 1490 1488 1487 1485 1482 1479 1476 1473 1471 1468 1465 1463 1461 1459 1457
1550 1556 1548 1544 1545 1544 1551 1552 1555 1561 1560 1559 1566 1530 1507 1505 1505 1507 1508 1507 1504 1503 1503 1502 1500 1498 1496 1494 1491 1489 1486 1483 1481 1478 1476 1473 1470 1467 1464 1462 1459 1456 1454 1451
1551 1558 1565 1545 1542 1542 1542 1543 1549 1563 1559 1561 1565 1533 1501 1501 1501 1504 1506 1504 1502 1499 1500 1500 1498 1496 1494 1491 1489 1486 1484 1481 1478 1475 1472 1469 1466 1462 1460 1457 1453 1451 1448 1445
1550 1562 1575 1547 1547 1543 1543 1542 1543 1550 1554 1550 1558 1522 1501 1502 1502 1502 1503 1502 1502 1501 1500 1498 1496 1493 1491 1489 1486 1484 1481 1478 1475 1471 1467 1464 1460 1458 1454 1451 1448 1445 1441 1438
1546 1554 1553 1552 1539 1543 1543 1542 1541 1544 1557 1533 1520 1497 1501 1500 1500 1499 1497 1499 1498 1498 1498 1497 1494 1492 1489 1486 1483 1480 1477 1473 1470 1467 1463 1459 1456 1452 1449 1445 1442 1438 1435 1431
1547 1557 1549 1543 1543 1542 1537 1538 1537 1537 1529 1537 1494 1507 1501 1505 1503 1500 1500 1498 1497 1496 1495 1494 1492 1490 1487 1483 1480 1476 1472 1468 1464 1460 1456 1453 1450 1446 1442 1439 1435 1431 1428 1425
1547 1554 1558 1556 1540 1536 1529 1529 1525 1522 1514 1513 1510 1502 1503 1499 1498 1497 1497 1497 1497 1496 1494 1492 1490 1487 1483 1480 1475 1471 1467 1463 1459 1455 1451 1446 1442 1438 1435 1431 1427 1423 1420 1417
1544 1547 1553 1536 1534 1536 1531 1513 1509 1509 1509 1508 1510 1502 1499 1498 1498 1497 1496 1495 1494 1493 1491 1489 1486 1482 1478 1475 1471 1466 1461 1457 1453 1449 1445 1440 1436 1431 1427 1423 1419 1414 1411 1408
1537 1545 1544 1532 1536 1546 1502 1501 1501 1501 1501 1501 1501 1499 1498 1496 1494 1494 1493 1493 1493 1491 1487 1485 1482 1478 1473 1469 1465 1461 1457 1453 1449 1444 1440 1435 1430 1425 1420 1416 1411 1407 1403 1399
1527 1537 1536 1535 1545 1516 1502 1495 1497 1497 1500 1499 1501 1500 1498 1495 1492 1491 1490 1490 1488 1486 1484 1480 1476 1472 1468 1464 1460 1456 1451 1447 1443 1438 1434 1430 1425 1419 1414 1409 1404 1399 1395 1391
1524 1527 1531 1538 1530 1518 1502 1498 1496 1494 1502 1499 1500 1501 1499 1496 1494 1489 1487 1486 1484 1482 1479 1474 1470 1466 1463 1459 1455 1450 1445 1441 1436 1431 1428 1424 1419 1414 1408 1403 1398 1393 1389 1384
1538 1529 1522 1520 1516 1506 1495 1495 1494 1503 1503 1498 1498 1499 1496 1491 1489 1485 1482 1481 1478 1472 1471 1467 1464 1461 1457 1453 1449 1444 1440 1435 1431 1426 1422 1417 1413 1407 1402 1397 1391 1387 1382 1377
1527 1536 1527 1518 1515 1513 1496 1495 1502 1502 1496 1496 1492 1490 1485 1483 1481 1480 1476 1473 1469 1466 1464 1461 1457 1454 1451 1447 1443 1438 1434 1430 1425 1420 1415 1410 1405 1401 1396 1391 1386 1381 1376 1370
1526 1519 1520 1522 1506 1497 1497 1498 1499 1498 1495 1491 1489 1485 1481 1478 1475 1472 1468 1465 1463 1461 1459 1455 1452 1448 1444 1441 1437 1431 1427 1423 1417 1413 1408 1403 1398 1394 1389 1385 1380 1375 1371 1365
1515 1513 1515 1514 1498 1498 1496 1494 1491 1488 1486 1483 1480 1476 1473 1470 1467 1464 1462 1460 1457 1455 1452 1449 1446 1442 1437 1434 1430 1426 1421 1417 1411 1406 1401 1396 1391 1386 1382 1378 1374 1369 1364 1359
1516 1513 1510 1502 1500 1496 1494 1493 1490 1483 1480 1476 1472 1468 1464 1462 1459 1458 1456 1454 1452 1449 1446 1443 1439 1435 1430 1427 1422 1418 1414 1409 1404 1399 1394 1389 1384 1379 1375 1370 1366 1362 1358 1355
1510 1507 1508 1500 1497 1494 1485 1482 1481 1477 1471 1467 1465 1459 1456 1455 1454 1454 1451 1448 1445 1442 1438 1435 1431 1427 1423 1419 1414 1410 1406 1402 1397 1392 1386 1382 1377 1372 1368 1362 1355 1354 1349 1346